GFSCGP_sfc_30mbdewp_081.txt.gz
Dewpoint
15 10 13 17 23 24 23 22 21 21 22 22 22 19 16 15 18 21 25 25 35 39 43 45 48 49 56 57 58 58 57 59 59 58 57 56 57 58 58 58 58 57 57 57
17 12 14 15 13 12 15 17 18 19 20 19 21 22 20 17 18 20 26 27 31 39 42 45 48 50 55 57 58 57 57 59 59 58 58 57 57 57 57 57 55 57 57 54
20 21 20 24 17 17 20 20 19 21 19 22 25 24 23 17 18 19 20 28 28 39 42 46 48 50 55 56 57 57 56 58 57 58 58 57 57 58 57 57 56 57 56 55
25 26 27 27 25 23 20 24 29 32 35 30 34 26 26 18 17 18 19 18 20 33 43 47 49 49 53 56 57 57 58 57 57 58 57 57 56 55 56 56 54 55 56 55
21 27 27 26 26 26 25 32 33 36 37 35 33 29 25 22 19 18 19 19 18 24 43 48 50 50 51 54 55 56 58 57 58 58 57 56 56 55 55 56 54 54 55 55
16 23 27 27 30 33 37 37 35 36 37 30 33 29 23 21 20 20 19 19 20 21 42 48 50 52 51 54 54 56 56 56 57 57 57 56 56 55 55 55 55 53 54 54
16 19 29 34 33 36 37 36 29 27 28 27 27 26 24 23 23 23 23 21 20 24 40 47 50 52 52 53 53 55 55 54 57 57 57 57 56 55 55 55 54 54 54 53
14 15 21 32 30 27 33 34 30 23 25 27 23 20 20 23 23 22 23 22 23 29 39 47 50 51 52 53 53 53 54 55 55 57 57 56 57 56 55 55 55 54 54 53
14 14 15 18 26 28 28 29 33 31 33 30 31 26 21 22 22 22 22 22 28 33 39 47 49 50 52 52 53 54 54 54 55 55 55 56 56 56 55 55 55 55 55 54
21 20 19 20 23 27 25 31 30 31 25 24 25 30 28 22 22 23 24 26 28 32 34 39 48 49 51 53 52 53 54 54 55 56 56 56 56 56 56 56 55 55 54 53
30 27 22 22 23 24 28 28 35 35 32 29 28 31 39 40 31 29 29 29 30 31 33 33 41 49 50 53 53 52 53 53 53 56 56 55 56 57 57 56 56 56 56 54
27 26 22 20 20 24 29 32 32 30 30 30 33 32 43 44 40 31 26 28 30 29 31 32 37 48 51 52 53 52 52 52 52 55 55 55 54 54 55 56 56 56 56 56
22 23 24 23 29 30 29 31 33 36 34 31 30 33 43 42 38 37 35 29 32 35 37 38 38 39 44 51 53 53 52 51 51 54 55 55 54 54 54 55 55 55 56 56
22 24 26 26 32 35 33 33 34 35 32 29 33 33 35 41 40 38 36 35 36 37 38 38 39 41 42 43 50 53 54 53 52 52 55 55 55 55 55 55 55 55 55 55
23 23 27 29 27 27 35 32 36 35 35 32 33 36 36 40 41 42 38 36 37 37 38 38 40 43 45 47 49 50 50 54 54 52 52 53 55 55 56 55 55 56 56 56
27 21 24 24 24 22 24 30 33 33 36 36 35 35 39 35 36 39 39 36 36 36 37 39 44 47 48 48 48 49 50 51 55 53 52 52 53 54 54 55 55 55 56 56
30 27 22 20 22 26 24 23 24 29 36 35 30 30 33 33 37 32 36 35 34 35 41 46 47 46 45 45 45 46 48 50 51 51 54 53 53 53 54 55 55 54 54 55
28 25 23 22 22 18 24 26 24 24 24 23 22 29 32 32 32 32 35 34 37 43 45 45 45 43 43 42 42 44 47 46 47 48 50 52 55 54 53 53 54 55 55 54
29 25 22 19 20 22 18 18 16 16 17 25 19 29 29 31 32 31 33 37 42 43 44 44 42 41 40 39 39 42 43 43 43 44 46 50 49 49 54 53 53 54 55 54
27 26 24 22 22 18 19 23 28 23 21 32 33 33 32 32 31 33 38 39 39 40 41 41 40 38 36 36 37 38 39 40 40 42 44 44 44 44 46 51 55 54 54 54
23 24 23 23 22 25 24 30 29 20 30 35 34 34 34 33 34 37 39 37 36 36 36 38 37 35 34 34 34 36 36 35 38 39 39 39 38 39 41 44 51 55 55 54
24 23 24 25 23 20 28 29 26 37 36 35 34 35 35 35 35 36 36 34 33 33 32 33 33 33 31 31 32 33 33 33 36 36 35 34 34 33 34 37 41 44 50 50
28 26 25 25 24 35 40 39 41 40 38 37 35 35 35 34 34 35 33 32 31 30 30 30 30 30 29 28 29 29 31 32 34 33 32 31 30 29 30 30 32 36 38 39
35 36 33 28 36 38 39 38 37 36 33 34 34 33 33 32 32 32 30 29 28 27 27 27 27 26 25 26 27 28 30 32 32 31 30 29 27 27 27 28 29 29 30 33
33 36 34 34 37 38 37 38 35 34 34 33 32 31 31 30 30 29 27 26 25 24 24 23 23 23 24 25 26 27 29 29 30 29 28 27 26 26 26 27 27 27 28 29
33 33 32 29 34 35 34 35 35 32 31 29 30 28 27 28 27 26 24 23 22 21 21 21 22 23 24 25 25 27 28 27 27 26 26 26 26 25 25 24 24 28 28 29

GFSCGP_sfc_30mbdewp_087.txt.gz
Dewpoint
18 16 14 13 22 25 25 24 23 23 22 23 25 28 27 27 26 25 26 26 24 21 31 44 56 59 60 60 59 58 58 57 56 55 56 57 57 58 59 60 61 61 60 57
16 15 18 14 15 18 22 23 22 17 19 28 28 25 26 27 27 27 28 29 28 28 40 49 56 58 59 59 58 58 58 56 56 56 55 56 57 58 59 59 60 61 60 57
16 16 18 14 13 13 14 14 14 15 28 29 31 22 20 22 26 28 32 30 27 29 41 49 55 57 58 57 57 57 57 57 57 57 56 57 57 57 57 57 58 59 60 59
25 22 19 16 13 14 13 23 23 26 26 20 33 20 23 26 28 31 32 32 30 28 42 48 53 56 57 57 58 58 57 57 57 57 56 56 55 55 56 56 57 58 58 59
24 27 26 23 22 26 26 32 31 33 31 32 31 28 20 29 29 30 31 31 30 27 40 46 52 54 56 57 56 56 57 56 56 57 56 56 56 55 55 56 56 57 57 57
20 18 19 27 34 30 37 32 30 35 33 24 23 27 19 20 22 28 31 31 28 24 39 45 49 54 55 56 55 56 55 56 56 56 57 56 56 54 55 55 55 56 56 56
14 14 24 33 32 36 34 27 21 21 25 20 26 27 24 25 27 31 31 30 28 25 32 44 47 53 55 55 55 55 54 54 55 57 57 56 56 55 54 54 54 54 55 55
9 7 21 33 28 28 32 28 20 16 22 26 27 25 28 36 37 34 33 32 30 28 27 44 47 52 54 55 55 54 54 53 53 55 56 56 56 56 55 55 54 54 54 54
13 11 22 31 31 29 34 29 31 26 28 26 29 29 30 40 41 39 36 33 34 32 27 40 47 51 54 55 55 55 54 54 54 54 55 56 56 56 55 56 55 53 53 53
24 16 24 24 29 29 30 34 28 31 23 22 25 27 32 39 41 41 36 37 38 39 38 45 47 50 53 54 55 56 55 55 54 54 56 56 56 56 56 56 56 55 53 52
30 26 25 26 24 25 30 30 32 33 31 26 23 27 42 41 42 42 41 38 40 42 46 48 49 51 52 53 54 55 55 55 55 55 56 56 56 56 56 55 55 55 55 54
24 27 26 26 27 28 27 29 33 27 28 31 30 29 44 41 41 42 42 39 43 46 47 50 51 52 52 52 53 54 54 54 55 55 55 55 56 56 56 55 55 56 55 55
22 27 18 23 30 34 32 34 33 35 34 29 26 28 41 41 41 42 42 43 44 46 45 47 49 52 52 53 54 54 54 54 55 55 55 55 55 56 55 56 56 56 56 55
23 25 23 15 20 32 31 32 33 34 29 30 31 30 38 38 39 41 44 45 45 44 44 44 45 46 47 49 50 52 53 55 55 56 55 55 55 55 54 55 55 56 56 55
26 19 23 24 26 27 27 28 28 32 33 30 32 34 36 41 41 42 45 46 44 42 41 42 42 42 43 44 46 46 47 48 53 55 56 56 56 56 56 56 56 56 56 56
30 24 26 23 23 24 23 23 26 28 34 35 35 35 38 41 45 44 44 46 43 41 41 40 40 39 39 40 42 42 44 45 47 48 51 53 55 55 55 55 56 55 56 56
27 27 24 20 24 22 19 20 16 31 35 34 32 37 40 42 41 43 44 46 42 41 39 38 37 37 37 38 39 39 39 40 40 41 42 43 45 46 47 50 55 55 54 55
26 27 28 22 22 14 16 18 17 21 33 34 34 36 41 41 43 45 47 43 41 39 38 37 35 35 35 36 37 37 37 37 37 36 36 38 39 41 43 45 45 46 49 55
31 27 22 18 17 16 16 16 27 27 26 33 34 36 41 39 38 38 40 39 38 37 36 34 33 32 32 34 36 36 35 35 35 34 33 34 33 36 37 38 39 41 43 46
31 29 24 21 18 12 15 25 33 29 24 35 37 39 39 39 36 34 34 35 35 34 33 32 30 29 29 30 33 34 34 34 33 32 31 30 29 31 32 33 35 36 39 41
27 27 25 24 21 20 23 33 34 22 27 37 38 37 38 35 35 33 33 33 32 31 31 31 28 27 27 28 30 31 32 33 32 30 29 28 28 29 29 30 31 33 35 38
22 22 23 25 22 18 35 34 24 34 37 37 37 36 34 32 31 30 29 28 27 27 26 26 26 25 26 27 28 29 29 31 31 29 27 27 27 28 28 28 29 30 32 32
24 28 27 25 24 36 36 36 38 38 37 37 37 35 34 32 30 28 26 25 24 24 24 24 24 25 25 26 27 27 28 30 29 28 26 26 26 26 27 27 27 27 29 29
32 34 30 32 35 36 36 34 35 32 30 31 33 32 32 30 30 28 26 24 23 22 22 23 24 24 24 25 25 26 27 28 27 26 26 25 24 24 24 26 26 26 27 26
31 32 30 30 32 33 34 36 32 31 30 29 26 26 29 28 27 25 23 21 21 21 22 23 23 23 23 24 25 26 26 26 25 25 25 25 24 24 23 23 23 24 26 27
30 26 26 26 30 30 28 33 33 30 28 26 25 23 23 23 23 22 21 21 20 20 20 20 21 21 22 22 22 23 25 24 24 23 23 23 22 21 22 21 21 22 22 24

GFSCGP_sfc_30mbdewp_090.txt.gz
Dewpoint
18 15 15 17 17 22 25 25 24 24 24 21 21 23 28 27 26 26 26 26 27 27 28 26 40 56 58 60 60 59 57 56 56 56 55 56 57 59 59 61 61 61 60 58
16 15 16 16 18 21 23 24 24 23 20 26 24 23 24 25 25 25 26 27 27 29 31 41 53 57 58 59 59 59 57 56 56 55 55 56 58 58 59 60 60 61 59 58
16 15 18 16 15 14 16 17 17 17 24 25 28 17 18 20 22 25 27 28 29 30 30 44 54 57 58 58 58 58 57 57 55 55 55 56 57 58 57 58 59 60 59 58
21 19 17 15 14 14 11 15 17 25 23 17 33 17 19 19 19 23 26 30 32 32 32 43 54 56 57 57 58 58 57 56 55 55 55 55 54 54 56 57 58 59 58 57
23 27 23 18 17 15 18 29 28 31 28 30 31 19 17 20 16 16 18 27 32 33 31 43 52 55 57 57 57 57 56 56 56 55 55 54 54 55 56 57 57 57 58 57
22 20 22 27 36 28 36 30 33 34 30 22 24 22 16 16 17 32 35 30 31 32 30 39 49 55 56 57 56 56 56 55 55 55 55 55 55 55 55 56 56 56 57 58
14 14 25 35 34 35 29 24 19 15 20 18 24 24 20 22 26 40 37 34 33 32 29 37 49 54 55 56 55 55 55 54 55 55 55 55 55 55 54 55 55 56 56 56
11 8 20 31 26 30 30 24 19 12 21 23 25 26 26 36 42 43 42 39 39 38 29 39 48 53 54 55 54 54 55 55 55 55 54 55 56 55 55 55 54 54 55 56
9 11 25 31 32 27 32 27 30 24 26 23 22 28 30 40 39 40 41 42 41 43 41 32 45 52 54 54 54 55 54 54 54 55 56 55 55 55 54 54 54 54 55 55
20 17 25 29 29 34 28 33 25 29 22 20 24 27 29 36 39 40 41 42 44 47 44 34 44 51 54 54 54 54 54 54 53 53 53 54 54 56 55 55 54 54 54 54
29 23 26 25 25 28 31 29 31 30 29 23 22 26 38 38 41 41 40 42 44 46 50 47 49 52 54 54 53 53 53 53 53 53 54 54 55 55 56 55 55 54 53 53
26 28 25 26 32 30 29 31 31 23 25 30 29 24 41 41 42 43 41 43 44 44 48 51 51 52 53 53 53 53 54 53 53 54 54 54 54 55 56 55 56 56 55 53
21 25 15 28 30 29 30 33 34 35 33 28 25 24 40 41 41 42 42 45 42 44 44 46 48 51 52 53 54 54 54 54 55 55 54 54 54 56 56 55 55 56 56 55
25 25 18 17 18 29 27 28 31 32 28 28 30 31 34 37 40 40 43 46 41 40 41 42 43 44 47 48 50 50 51 55 55 55 55 55 55 55 55 55 55 56 56 55
24 21 23 24 24 27 25 25 27 30 31 28 26 32 34 36 39 42 45 43 40 39 38 38 38 40 41 42 44 45 46 49 56 56 55 55 55 55 55 55 55 55 55 55
29 25 25 22 23 23 21 21 23 23 24 30 30 32 38 40 41 43 45 42 40 38 38 37 36 37 38 38 39 40 40 41 43 45 45 46 47 53 54 55 55 55 55 55
26 23 20 15 24 20 14 20 14 15 30 33 31 33 39 41 42 42 42 41 40 39 37 36 35 35 36 37 37 37 37 37 37 38 38 40 42 43 44 45 46 47 50 55
26 24 25 20 21 8 13 17 18 24 25 34 35 34 40 40 39 40 41 39 37 36 35 35 34 33 33 35 36 36 35 35 34 33 32 33 36 37 38 39 40 41 43 45
30 26 20 16 18 15 14 20 26 22 19 34 34 35 42 39 37 35 37 37 36 35 34 32 32 31 30 31 35 35 34 33 31 30 30 30 31 32 33 34 35 36 39 41
30 28 23 22 16 12 15 24 33 30 10 37 37 39 40 40 35 32 35 35 34 33 31 29 29 28 28 29 32 33 33 32 30 29 28 28 29 30 30 31 31 33 36 38
26 27 23 23 19 21 26 34 32 15 20 37 36 38 38 33 35 34 32 30 29 28 28 27 26 26 27 28 30 30 31 31 30 28 27 28 28 29 29 29 30 31 33 33
21 22 22 23 21 18 36 34 26 34 37 36 35 33 31 30 30 30 29 27 24 24 24 25 25 25 26 27 27 28 28 29 29 28 26 26 27 27 27 28 28 29 30 29
23 29 26 27 25 35 35 33 34 35 34 35 35 34 32 30 29 29 27 24 23 22 23 24 25 24 25 26 26 26 27 28 27 26 25 24 24 24 26 26 26 27 26 26
29 33 29 30 31 32 34 35 33 32 30 31 32 32 32 30 29 26 25 24 22 23 23 23 22 22 23 24 24 26 26 27 26 24 24 24 23 22 22 23 24 25 25 24
29 31 27 30 31 32 31 31 32 31 30 26 25 25 26 26 24 22 22 21 21 21 21 21 21 21 21 21 22 23 25 25 24 24 23 23 23 22 22 22 23 23 25 25
28 26 23 25 28 29 27 29 30 27 26 26 25 23 23 22 21 20 20 19 19 19 19 19 20 20 20 20 20 21 22 23 22 22 21 21 21 21 20 20 20 21 22 22

GFSCGP_sfc_30mbdewp_093.txt.gz
Dewpoint
19 18 16 17 20 19 23 23 22 24 24 24 24 24 24 26 27 26 26 26 26 28 28 30 32 35 51 56 59 60 59 58 59 57 57 58 58 60 61 61 62 61 60 59
16 15 17 18 20 20 20 19 20 24 25 23 23 22 23 24 24 24 25 26 26 28 29 31 36 46 52 56 58 59 58 58 58 58 57 56 57 58 59 60 61 61 59 58
9 13 17 16 16 18 18 17 20 18 21 24 27 18 18 19 22 24 26 26 27 28 29 31 41 51 54 56 58 58 58 58 57 57 56 57 57 58 58 59 59 60 59 58
23 18 18 17 16 15 13 17 16 17 19 14 31 15 18 18 19 21 24 31 33 29 30 32 40 51 54 56 58 58 58 58 57 56 56 55 55 55 56 57 59 60 59 58
24 26 20 18 16 16 12 17 17 28 26 28 26 23 15 16 14 32 39 41 39 37 33 33 37 47 54 57 58 58 58 57 56 55 55 55 54 54 56 57 58 59 58 58
24 23 25 21 32 17 33 32 33 33 30 20 21 20 16 19 22 33 41 42 42 41 41 35 36 49 54 56 58 58 58 57 56 55 55 55 54 54 56 57 57 57 57 57
17 16 32 36 31 34 29 25 21 17 20 11 24 24 22 31 40 40 40 41 43 44 46 44 34 49 54 56 56 57 56 56 56 55 55 55 54 55 55 56 57 56 56 56
13 13 25 32 31 30 28 24 18 9 16 21 26 14 23 40 39 39 41 41 42 44 46 48 42 46 53 56 56 56 56 55 55 55 55 55 55 56 55 56 56 56 56 56
12 11 27 31 34 30 30 25 28 24 27 21 19 22 29 37 38 40 40 39 41 44 45 49 48 47 53 55 56 56 55 55 54 54 54 54 56 56 55 56 56 55 57 57
15 22 28 32 31 33 29 32 24 27 19 19 20 24 27 34 37 39 39 39 43 44 45 50 47 45 53 55 55 55 55 55 55 54 54 54 55 56 55 55 55 55 55 56
28 26 27 28 25 29 29 28 30 29 27 19 20 21 39 37 40 40 42 42 43 43 45 50 49 49 53 54 54 55 55 54 56 54 55 55 54 55 55 55 55 55 55 55
29 28 26 28 32 32 31 31 29 21 24 27 27 22 39 40 41 41 41 43 42 42 44 46 52 53 53 54 53 54 54 53 54 54 53 53 54 55 56 56 56 56 55 55
24 24 27 28 27 27 28 32 33 34 31 26 24 21 40 37 37 40 43 41 41 41 41 42 44 45 51 53 54 54 54 53 54 54 54 54 54 55 54 56 56 56 55 55
29 25 21 20 23 27 23 24 30 30 26 23 24 23 27 32 37 39 42 40 40 39 40 39 39 40 42 43 45 48 52 54 54 54 55 54 54 54 56 56 55 56 56 56
26 24 24 24 26 28 25 23 24 26 28 25 22 23 27 32 39 42 42 40 40 38 38 37 37 38 38 39 40 41 43 47 55 55 54 55 55 56 56 56 55 55 56 55
27 25 24 18 24 22 19 18 22 24 24 25 25 28 33 40 39 43 41 40 38 37 37 35 35 36 37 37 38 38 38 39 41 42 43 45 47 47 48 49 54 55 55 55
26 24 17 15 23 17 9 18 14 17 19 28 25 30 37 38 37 40 40 38 36 35 34 34 33 32 33 36 36 35 35 36 35 35 36 38 40 41 41 43 44 44 46 48
27 23 24 18 21 5 13 20 20 20 22 32 33 35 39 38 37 36 38 36 35 33 32 32 32 32 32 34 36 34 33 32 33 32 31 33 35 36 37 38 38 39 42 44
29 25 23 17 15 15 15 27 26 23 19 35 36 37 40 38 35 32 35 35 33 33 32 31 31 30 31 33 34 34 32 30 30 29 29 30 31 32 33 34 35 37 40 39
29 28 22 21 14 7 18 29 34 33 11 34 36 39 40 39 34 30 31 31 30 29 28 27 28 28 29 31 32 32 31 29 28 28 29 30 30 30 31 32 33 35 35 34
26 26 22 21 17 19 32 34 33 17 22 33 34 34 36 30 32 30 29 28 27 25 26 26 26 26 27 28 30 29 29 29 28 27 27 28 28 28 30 30 31 32 32 31
23 22 22 21 20 17 34 32 27 34 36 36 33 32 30 30 29 28 27 26 25 23 24 25 25 25 25 26 27 27 28 28 27 26 24 24 25 26 27 28 28 28 29 28
25 29 26 28 27 32 34 32 33 35 33 33 33 33 31 29 27 26 25 25 25 23 22 22 23 23 23 24 24 25 27 28 26 25 23 23 23 23 24 25 26 26 26 26
29 32 29 29 29 28 30 32 31 30 28 30 31 31 30 27 26 24 24 23 23 22 21 21 20 20 21 21 22 24 25 25 25 24 24 23 22 22 22 23 24 24 24 24
28 28 26 29 29 30 28 29 30 29 29 27 26 26 25 24 22 22 21 20 20 19 20 20 19 19 19 20 20 22 23 24 22 22 22 22 21 21 20 22 23 23 25 24
28 26 24 24 28 27 25 28 28 25 24 24 23 22 23 23 21 19 19 18 18 18 18 18 18 18 19 19 19 20 21 22 22 21 20 21 20 19 19 19 19 21 22 22

GFSCGP_sfc_30mbdewp_096.txt.gz
Dewpoint
15 14 15 16 21 21 19 18 19 21 22 23 22 22 22 24 24 25 26 26 25 26 26 27 27 29 34 40 50 56 60 62 62 61 60 60 60 61 61 61 62 61 62 61
13 8 12 14 17 18 23 23 18 19 24 24 22 21 22 23 24 25 24 25 25 26 27 27 28 30 36 41 49 55 58 61 61 61 60 59 59 60 60 61 61 62 61 59
9 10 11 17 16 20 22 18 16 17 19 20 20 19 20 21 21 22 23 24 25 26 27 27 28 30 36 45 49 54 57 60 60 60 59 59 58 58 58 60 60 60 59 59
12 9 15 18 17 20 15 16 16 17 17 15 22 13 15 17 16 18 23 34 38 39 39 36 32 30 33 45 50 53 58 58 60 60 59 57 56 55 56 57 58 60 60 58
20 18 16 16 13 14 12 12 15 13 11 14 18 19 12 13 14 22 29 38 40 41 41 42 39 34 33 44 52 55 58 58 59 59 58 57 55 53 56 57 58 59 59 59
23 27 21 17 18 17 15 14 18 21 21 20 17 15 9 13 22 32 37 39 40 41 42 43 44 40 36 43 53 57 58 57 58 59 58 57 55 53 55 56 57 58 58 58
22 20 29 25 26 21 22 22 20 19 20 14 17 16 11 26 36 37 37 38 39 41 43 44 45 45 38 47 54 57 57 57 57 57 57 57 55 54 54 55 57 57 57 57
14 13 28 31 23 22 22 20 16 8 8 10 21 17 18 33 33 36 36 37 39 40 42 44 47 48 45 47 54 57 57 57 57 57 56 56 55 54 54 55 57 57 57 57
12 11 19 30 31 26 26 23 24 20 24 18 14 17 24 33 31 33 35 37 40 41 41 44 47 50 48 46 53 56 56 56 56 56 56 56 55 56 54 55 55 56 57 58
13 18 20 30 31 31 26 26 22 22 18 15 15 17 21 27 33 34 35 38 41 40 41 43 44 50 45 47 53 56 56 55 56 56 56 56 55 56 55 56 55 55 57 58
17 18 24 27 23 24 27 25 25 23 24 16 14 19 34 34 34 34 36 41 40 39 40 40 42 49 48 50 55 56 56 55 55 56 55 55 55 55 56 55 55 55 56 57
30 23 20 20 30 25 21 20 22 18 23 24 24 21 37 30 31 36 39 39 38 38 39 39 40 45 51 53 54 55 55 55 55 55 54 55 55 55 55 55 56 55 55 55
28 25 24 26 27 27 25 28 28 30 28 25 23 22 31 24 30 38 40 39 37 37 36 36 38 40 43 46 53 55 55 55 57 55 56 55 53 54 55 55 56 56 56 56
29 24 22 18 21 24 26 27 28 26 23 21 22 19 19 28 35 37 40 39 37 36 36 34 35 38 39 41 43 44 51 55 55 54 54 54 53 54 55 56 55 56 56 55
30 21 22 22 22 21 19 17 19 19 20 19 18 19 24 36 38 40 40 37 36 36 35 34 33 34 37 38 39 40 41 43 51 52 52 54 54 54 55 55 54 55 56 56
32 23 18 19 19 16 13 12 13 15 18 19 21 22 33 38 38 37 37 36 35 33 34 34 33 33 36 36 37 37 37 38 39 39 40 42 45 46 47 48 49 53 53 55
23 19 13 16 16 11 9 15 13 16 20 21 20 25 31 37 36 36 35 35 33 33 32 31 32 32 35 36 34 35 35 36 36 36 36 36 38 40 41 42 43 44 46 47
21 16 16 14 13 2 17 18 21 20 26 28 29 33 37 37 35 34 35 34 32 32 31 30 31 31 32 35 35 33 33 33 35 34 34 35 35 36 38 38 40 42 42 39
27 20 16 12 8 12 22 26 25 22 22 30 34 35 37 35 34 31 31 32 31 30 31 30 31 31 32 33 33 32 31 30 30 30 31 32 34 34 36 36 37 38 37 34
26 26 18 17 8 9 25 28 30 29 18 32 33 34 38 36 36 28 29 29 29 30 27 27 28 27 30 32 32 31 30 30 29 29 29 31 31 32 32 34 35 35 33 32
23 24 20 19 15 18 31 30 28 18 27 33 33 31 30 27 27 29 28 27 30 26 26 26 26 26 26 28 30 29 29 29 28 27 28 28 28 30 31 31 32 32 32 32
21 21 21 21 18 17 32 29 27 31 34 34 33 32 29 28 28 27 26 26 28 24 23 24 24 24 25 26 27 28 27 28 27 26 26 26 27 28 29 29 29 30 30 30
25 28 26 27 25 30 31 29 31 32 30 31 31 31 31 28 27 27 25 25 25 24 22 22 22 22 23 23 25 25 27 27 26 24 24 24 24 25 25 26 27 27 27 27
30 30 30 29 29 28 30 31 31 30 29 29 31 31 30 27 26 25 25 24 22 20 20 21 21 21 21 22 23 24 25 25 25 24 23 22 22 22 23 23 24 25 25 25
28 28 27 28 30 29 28 29 29 29 29 28 27 27 27 25 23 22 20 20 19 19 19 20 20 20 19 20 21 22 24 24 23 23 22 22 22 21 21 22 23 22 24 25
28 27 27 25 28 28 27 28 28 26 25 25 24 23 23 22 21 20 19 18 18 18 18 18 19 19 19 20 20 21 22 23 23 22 22 23 22 21 21 19 19 20 21 22

GFSCGP_sfc_30mbdewp_102.txt.gz
Dewpoint
19 22 17 8 11 15 16 15 17 18 29 27 25 21 21 22 22 22 23 24 24 25 25 25 24 24 29 31 38 58 64 65 65 63 63 62 62 62 61 62 61 61 62 62
9 21 23 10 3 4 11 16 18 28 30 30 30 32 31 24 23 22 23 24 25 27 27 28 29 29 31 33 36 42 61 64 64 63 63 62 61 61 61 61 62 61 61 62
2 12 25 12 6 -1 7 13 25 26 30 36 34 31 29 27 23 23 24 24 25 26 28 29 31 34 39 40 42 38 50 62 64 63 62 62 62 61 61 61 61 61 60 61
1 2 18 13 3 0 7 13 25 27 32 29 25 25 23 23 22 22 22 25 26 26 34 35 37 38 40 40 42 42 40 51 63 63 61 61 60 59 60 60 60 60 61 62
2 6 17 16 0 1 8 14 24 22 28 29 26 29 25 21 19 19 20 27 35 37 39 40 40 42 42 44 44 44 44 44 62 62 62 61 59 59 59 59 59 60 61 60
3 11 30 21 12 5 12 26 26 26 25 26 27 26 19 20 21 21 28 33 36 38 39 40 41 43 44 47 50 50 48 47 62 63 61 60 60 58 58 58 58 59 58 59
11 16 25 17 13 15 20 23 18 20 24 19 16 15 18 22 21 29 32 33 37 39 40 40 41 42 45 47 50 52 48 49 62 62 61 61 60 59 57 56 57 58 58 58
7 26 31 25 12 15 18 20 21 10 11 12 12 25 27 29 31 32 35 39 38 38 39 40 41 43 44 47 48 51 52 50 61 61 60 60 60 59 57 56 57 58 57 57
29 29 27 20 16 20 16 16 22 31 29 27 24 32 31 37 31 33 35 38 38 38 39 39 39 40 41 44 46 49 50 54 59 60 60 60 60 59 56 56 59 58 58 58
30 28 23 24 22 21 21 22 26 30 25 24 20 25 29 34 31 34 36 37 38 38 38 37 37 37 39 40 43 48 52 58 58 58 59 59 59 58 56 57 58 59 58 57
29 28 21 28 33 23 22 28 31 31 25 24 21 30 37 35 37 37 37 37 36 36 36 36 35 36 37 38 40 44 56 57 57 58 58 59 59 56 57 57 58 58 59 58
20 26 20 18 31 29 26 28 27 29 16 28 30 29 38 38 38 38 36 36 36 36 36 35 34 35 36 36 37 40 43 57 58 58 58 58 58 56 55 58 58 59 58 58
33 24 26 21 22 33 28 28 26 27 33 22 20 30 38 38 37 37 36 35 35 35 35 35 35 34 35 35 35 37 39 42 57 58 57 57 57 56 55 57 57 58 58 57
36 30 29 21 20 31 31 33 33 28 27 24 27 31 35 36 35 36 35 35 34 34 34 33 33 34 34 34 34 35 37 39 43 57 57 56 56 56 56 57 57 57 57 57
34 30 32 30 28 26 32 33 32 23 21 29 27 33 35 36 35 36 36 35 33 33 33 33 33 32 34 34 34 34 35 37 39 41 43 46 53 56 56 56 57 57 56 56
33 30 30 30 26 29 23 20 19 18 21 23 33 34 37 37 37 34 34 33 32 32 32 32 32 32 32 33 33 33 34 35 36 37 38 40 43 45 47 49 52 52 50 49
30 25 28 16 15 17 19 16 22 24 25 29 30 35 36 33 30 31 32 31 31 31 32 31 30 31 31 32 33 33 33 34 34 35 35 36 38 39 41 40 41 41 42 41
28 23 21 12 13 19 23 27 30 27 28 26 27 33 33 30 29 30 31 30 30 30 29 31 31 31 31 32 32 32 33 33 33 33 34 35 35 36 36 36 35 35 36 36
23 24 18 17 17 23 25 27 28 32 30 31 29 31 33 31 31 28 30 31 31 32 28 28 29 30 32 32 32 31 31 31 31 31 32 33 34 34 34 34 33 34 33 32
20 25 23 16 13 20 26 27 29 28 24 32 31 30 33 33 31 26 29 30 31 28 26 25 26 26 27 30 32 31 30 29 29 31 31 32 33 33 32 32 32 33 32 32
24 25 21 18 18 25 27 28 29 23 23 33 31 29 28 26 27 29 29 29 31 31 24 25 24 25 25 27 28 29 31 29 30 31 31 31 32 32 32 32 32 32 32 32
23 25 23 24 21 20 29 27 25 28 32 33 33 33 30 30 29 28 28 28 30 27 22 23 23 24 24 25 26 26 28 30 29 29 30 29 29 29 30 32 32 32 32 31
25 27 24 25 24 31 30 30 32 33 31 31 32 31 30 29 28 28 27 26 25 21 22 22 22 22 23 24 24 26 25 27 28 26 25 25 24 27 27 26 26 29 30 29
29 27 29 28 28 28 29 30 31 32 32 30 29 29 29 29 29 28 27 24 22 21 21 22 22 21 21 22 23 25 26 25 25 25 24 23 22 21 23 24 24 24 25 25
27 28 28 27 28 28 28 28 29 28 28 27 27 25 25 25 23 22 21 20 20 20 21 21 21 21 21 21 22 23 25 26 25 25 25 24 22 20 20 22 22 22 24 25
29 27 26 25 30 29 28 28 28 26 24 23 23 23 22 22 22 21 20 20 19 19 20 20 20 20 21 21 22 24 24 25 26 26 25 27 27 25 20 19 19 21 22 22